Piney Island, NC

2:40 AM EDT on March 24, 2017 (GMT -0400)
Piney Island

Weather History for KNBT - October, 2011

Change the Weather History Date:

Thursday, October 20, 2011

  Actual Average (KMRH) Record (KMRH)
Temperature  
Mean Temperature 59 °F -  
Max Temperature 66 °F 74 °F 85 °F (1979)
Min Temperature 52 °F 52 °F 29 °F (1981)
Degree Days  
Heating Degree Days 6    
Growing Degree Days 9 (Base 50)    
Moisture  
Dew Point 45 °F    
Average Humidity 60    
Maximum Humidity 74    
Minimum Humidity 43    
Precipitation  
Precipitation 0.00 in - - ()
Sea Level Pressure  
Sea Level Pressure 29.80 in    
Wind  
Wind Speed 18 mph (SW)    
Max Wind Speed 25 mph    
Max Gust Speed 34 mph    
Visibility 10 miles    
Events      
Averages and records for this station are not official NWS values.
T = Trace of Precipitation, MM = Missing Value Source: NWS Daily Summary

Daily Weather History Graph

Daily Weather History Graph

Search for Another Location

Airport or City:

Trip Planner

Search our weather history database for the weather conditions in past years. The results will help you decide how hot, cold, wet, or windy it might be!

Date:

Astronomy

Oct. 20, 2011 Rise Set
Actual Time 7:15 AM EDT 6:25 PM EDT
Civil Twilight 6:50 AM EDT 6:50 PM EDT
Nautical Twilight 6:20 AM EDT 7:20 PM EDT
Astronomical Twilight 5:51 AM EDT 7:49 PM EDT
Moon 12:14 AM EDT (10/20) 2:17 PM EDT (10/20)
Length of Visible Light 12h 00m
Length of Day
11h 09m
Last Quarter, 44% of the Moon is Illuminated
Oct 20
Last Quarter
Oct 26
New
Nov 2
First Quarter
Nov 10
Full
Nov 18
Last Quarter

Hourly Weather History & Observations

Time (EDT) Temp. Dew Point Humidity Pressure Visibility Wind Dir Wind Speed Gust Speed Precip Events Conditions
12:56 AM 64.9 °F 53.1 °F 65% 29.55 in 10.0 mi WSW 18.4 mph 32.2 mph N/A   Clear
1:56 AM 59.0 °F 48.0 °F 67% 29.59 in 10.0 mi WSW 25.3 mph 34.5 mph N/A   Clear
2:56 AM 57.0 °F 45.0 °F 64% 29.62 in 10.0 mi WSW 16.1 mph 26.5 mph N/A   Clear
3:56 AM 55.0 °F 46.0 °F 72% 29.65 in 10.0 mi SW 11.5 mph - N/A   Clear
4:56 AM 54.0 °F 44.1 °F 69% 29.69 in 10.0 mi WSW 13.8 mph 27.6 mph N/A   Clear
5:56 AM 53.1 °F 43.0 °F 69% 29.74 in 10.0 mi SW 13.8 mph 23.0 mph N/A   Clear
6:56 AM 52.0 °F 43.0 °F 71% 29.76 in 10.0 mi SW 12.7 mph - N/A   Clear
7:56 AM 53.1 °F 43.0 °F 69% 29.78 in 10.0 mi SW 13.8 mph - N/A   Clear
8:56 AM 55.0 °F 43.0 °F 64% 29.81 in 10.0 mi SW 19.6 mph 25.3 mph N/A   Clear
9:56 AM 57.9 °F 43.0 °F 58% 29.81 in 10.0 mi SW 16.1 mph 23.0 mph N/A   Clear
10:56 AM 61.0 °F 41.0 °F 48% 29.81 in 10.0 mi SW 19.6 mph 27.6 mph N/A   Clear
11:56 AM 64.0 °F 42.1 °F 45% 29.82 in 10.0 mi SW 21.9 mph 31.1 mph N/A   Clear
12:56 PM 64.9 °F 42.1 °F 43% 29.81 in 10.0 mi SSW 23.0 mph 29.9 mph N/A   Clear
1:56 PM 64.9 °F 42.1 °F 43% 29.80 in 10.0 mi SW 24.2 mph 32.2 mph N/A   Clear
2:56 PM 66.0 °F 44.1 °F 45% 29.79 in 10.0 mi North - - N/A   Clear
3:56 PM 66.0 °F 46.0 °F 48% 29.81 in 10.0 mi North - - N/A   Clear
4:56 PM 64.9 °F 46.0 °F 50% 29.82 in 10.0 mi North - - N/A   Clear
5:56 PM 63.0 °F 48.0 °F 58% 29.84 in 10.0 mi North - - N/A   Clear
6:56 PM 61.0 °F 48.9 °F 64% 29.86 in 10.0 mi North - - N/A   Clear
7:56 PM 57.0 °F 48.9 °F 74% 29.91 in 10.0 mi North - - N/A   Clear
8:56 PM 57.0 °F 48.0 °F 72% 29.94 in 10.0 mi North - - N/A   Clear
9:56 PM 59.0 °F 44.1 °F 58% 29.96 in 10.0 mi North - - N/A   Clear
10:56 PM 59.0 °F 45.0 °F 60% 29.99 in 10.0 mi North - - N/A   Clear
11:56 PM 57.0 °F 45.0 °F 64% 29.99 in 10.0 mi North - - N/A   Clear